This demonstration page uses our WeatherBlox Daily Observations layout. Learn more.

Left ArrowRight Arrow

Hourly Observations for November 29, 2022

Temp ( °F °C ) Dew Point ( °F °C ) Humidity (%) Winds ( mph kmh ) Pressure ( in mb ) Visibility ( mi km ) Precip ( " mm )
12:04 am 00:04 Mostly Clear 11 -11.7 3 -16.1 70 70 NW 16 26 30.18 1022 10 16 0.00 0.00
12:53 am 00:53 Mostly Cloudy 11 -11.7 4 -15.6 73 73 WNW 13 20 30.10 1019 10 16 0.00 0.00
1:40 am 01:40 Cloudy 11 -11.7 3 -16.1 70 70 WNW 15 24 30.19 1022 10 16 0.00 0.00
1:53 am 01:53 Cloudy 11 -11.7 4 -15.6 73 73 WNW 16 26 30.10 1019 10 16 0.00 0.00
2:09 am 02:09 Cloudy 11 -11.7 2 -16.7 66 66 WNW 17 28 30.19 1022 9 14 0.01 0.13
2:33 am 02:33 Cloudy 11 -11.7 3 -16.1 70 70 WNW 17 28 30.20 1023 10 16 0.01 0.13
2:53 am 02:53 Mostly Cloudy 10 -12.2 3 -16.1 73 73 NW 14 22 30.13 1020 10 16 0.01 0.13
3:05 am 03:05 Partly Cloudy 10 -12.2 1 -17.2 66 66 WNW 17 28 30.22 1023 10 16 0.00 0.00
3:37 am 03:37 Mostly Cloudy 10 -12.2 2 -16.7 69 69 WNW 14 22 30.23 1024 10 16 0.00 0.00
3:53 am 03:53 Mostly Cloudy 10 -12.2 1 -17.2 66 66 WNW 16 26 30.14 1021 10 16 0.00 0.00
4:14 am 04:14 Partly Cloudy 9 -12.8 0 -17.8 66 66 WNW 15 24 30.24 1024 10 16 0.00 0.00
4:53 am 04:53 Mostly Cloudy 9 -12.8 1 -17.2 69 69 WNW 15 24 30.16 1021 10 16 0.00 0.00
5:53 am 05:53 Cloudy 8 -13.3 1 -17.2 72 72 WNW 8 13 30.17 1022 10 16 0.00 0.00
6:20 am 06:20 Cloudy 9 -12.8 3 -16.1 76 76 W 8 13 30.27 1025 10 16 0.00 0.00
6:53 am 06:53 Mostly Cloudy 8 -13.3 -1 -18.3 66 66 WNW 14 22 30.20 1023 10 16 0.00 0.00
7:18 am 07:18 Cloudy 9 -12.8 0 -17.8 66 66 WNW 12 19 30.29 1026 10 16 0.00 0.00
7:53 am 07:53 Cloudy 9 -12.8 1 -17.2 69 69 WNW 12 19 30.20 1023 10 16 0.00 0.00
8:53 am 08:53 Cloudy 9 -12.8 -1 -18.3 63 63 NW 15 24 30.22 1024 10 16 0.00 0.00
9:53 am 09:53 Cloudy 10 -12.2 1 -17.2 66 66 WNW 16 26 30.22 1024 10 16 0.00 0.00
10:53 am 10:53 Cloudy 11 -11.7 1 -17.2 64 64 WNW 15 24 30.23 1024 10 16 0.00 0.00
11:53 am 11:53 Cloudy 11 -11.7 1 -17.2 64 64 WNW 16 26 30.23 1024 10 16 0.00 0.00
12:53 pm 12:53 Cloudy 11 -11.7 2 -16.7 66 66 W 14 22 30.24 1024 10 16 0.00 0.00
1:53 pm 13:53 Cloudy 12 -11.1 2 -16.7 63 63 WNW 15 24 30.24 1024 10 16 0.00 0.00
2:02 pm 14:02 Cloudy 11 -11.7 2 -16.7 66 66 NW 13 20 30.32 1027 10 16 0.00 0.00
2:53 pm 14:53 Cloudy 11 -11.7 1 -17.2 64 64 WNW 14 22 30.25 1024 10 16 0.00 0.00
3:04 pm 15:04 Mostly Cloudy 11 -11.7 1 -17.2 64 64 NW 12 19 30.33 1027 10 16 0.00 0.00
3:14 pm 15:14 Partly Cloudy 11 -11.7 1 -17.2 64 64 WNW 12 19 30.34 1027 10 16 0.00 0.00
3:53 pm 15:53 Sunny 10 -12.2 1 -17.2 66 66 NW 13 20 30.27 1025 10 16 0.00 0.00
4:53 pm 16:53 Clear 7 -13.9 0 -17.8 72 72 WNW 7 11 30.29 1026 10 16 0.00 0.00
5:53 pm 17:53 Clear 5 -15 0 -17.8 79 79 NW 3 6 30.31 1026 10 16 0.00 0.00
6:53 pm 18:53 Clear 4 -15.6 -1 -18.3 80 80 SW 3 6 30.31 1026 10 16 0.00 0.00
7:53 pm 19:53 Clear 3 -16.1 -2 -18.9 79 79 Calm 30.31 1027 10 16 0.00 0.00
8:53 pm 20:53 Clear 1 -17.2 -4 -20 79 79 S 3 6 30.32 1027 10 16 0.00 0.00
9:53 pm 21:53 Clear 1 -17.2 -3 -19.4 83 83 E 3 6 30.31 1026 10 16 0.00 0.00
10:53 pm 22:53 Clear 2 -16.7 -3 -19.4 79 79 E 3 6 30.30 1026 10 16 0.00 0.00
11:53 pm 23:53 Clear 1 -17.2 -3 -19.4 83 83 E 6 9 30.29 1026 10 16 0.00 0.00

Powered by AerisWeather